Location: Southlake
(32.9412°N, 97.1342°W)
Time: 10:51:43
(UTC+00:00)

USA 215 - Pass Details

Date: 03 December 2021
Orbit: 1099 x 1109 km, 123.0° (Epoch: 14 January)

Event Time Altitude Azimuth Distance (km) Brightness Sun altitude
Rises 12:06:31 0° 119° (ESE) 3,909 7.9 -14.2°
Reaches altitude 10° 12:09:04 10° 114° (ESE) 2,952 7.0 -13.7°
Maximum altitude 12:15:19 51° 41° (NE) 1,364 3.9 -12.5°
Drops below altitude 10° 12:21:33 10° 328° (NNW) 2,956 5.1 -11.2°
Enters shadow 12:22:33 - 326° (NW) 3,330 5.3 -11.0°
